Regional Weather Roundup
Issued by NWS

Home | Current Version | Previous Version | Graphics & Text | Print | Product List | Glossary On
Versions: 1 2 3 4 5 6 7 8 9 10 11 12 13 14 15 16 17 18 19 20 21 22 23 24 25 26 27 28 29 30 31 32 33 34 35 36 37 38 39 40 41 42 43 44 45 46 47 48 49 50
675
ASUS43 KLOT 220812
RWRIL

ILLINOIS REGIONAL WEATHER ROUNDUP
NATIONAL WEATHER SERVICE CHICAGO/ROMEOVILLE IL
300 AM CDT FRI MAY 22 2015

NOTE: "FAIR" INDICATES FEW OR NO CLOUDS BELOW 12,000 FEET WITH NO
SIGNIFICANT WEATHER AND/OR OBSTRUCTIONS TO VISIBILITY.

* THESE STATIONS ARE NOT UNDER NWS QUALITY CONTROL. THEY ALSO MAY NOT
  REPORT WEATHER SUCH AS PRECIPITATION OR FOG.

ILZ001-002-007-009-015-016-024-220900-
NORTHWEST ILLINOIS

CITY           SKY/WX    TMP DP  RH WIND       PRES   REMARKS
MOLINE         CLEAR     49  43  80 W3        30.09R
STERLING*      CLEAR     50  43  76 W7        30.07R
SAVANNA*       CLEAR     51  44  74 CALM      30.07S
$$

ILZ003-004-008-010-011-017-018-220900-
NORTH CENTRAL ILLINOIS

CITY           SKY/WX    TMP DP  RH WIND       PRES   REMARKS
ROCKFORD       CLEAR     51  41  68 N3        30.08R
FREEPORT*      CLEAR     50  40  66 NW3       30.09R
ROCHELLE*      CLEAR     48  43  83 CALM      30.07R
DE KALB*       CLEAR     51  42  71 W9        30.06R
PERU*          CLEAR     53  46  76 W10       30.07R
$$

ILZ005-006-012>014-019>023-220900-
NORTHEAST ILLINOIS

CITY           SKY/WX    TMP DP  RH WIND       PRES   REMARKS
CHICAGO-OHARE  CLEAR     55  41  59 NW3       30.05R
CHICAGO-MIDWAY CLEAR     58  43  57 N8        30.05R
AURORA         CLEAR     49  42  77 W8        30.05R
LANSING*       CLEAR     51  41  68 CALM      30.05R
JOLIET*        CLEAR     58  46  65 SW7       30.05R
WAUKEGAN       CLEAR     47  39  74 N7        30.07R
DUPAGE AIRPORT CLEAR     51  42  71 W5        30.04R
KANKAKEE*      CLEAR     53  45  75 W7        30.07S
WHEELING       CLEAR     50  40  68 NE7       30.08R
MORRIS*        CLEAR     52  45  75 W7        30.02S
ROMEOVILLE*    CLEAR     54  44  67 W9        30.05R
NORTHERLY ISL    N/A     54  45  71 NE1         N/A
$$

LMZ740>746-220900-
SOUTHERN LAKE MICHIGAN

STATION/POSITION SKY/WX   TEMP    WIND        PRES    VSBY  WAVE
                          AIR SEA DIR/SP/G                  HT/PER
                          (F)     (DEG/KT/KT) (MB)    (MI)  (FT/S)
SOUTHERN BUOY              41 38   10/  6/  8 1018.9R         1
HARRISON CRIB              58      60/  3/  4   N/A
BURNHAM HARBOR             57     260/  3/  9   N/A
CALUMET HARBOR                     CALM  /  3   N/A
BURNS HARBOR               57     260/  4/  9 1018.3R
MICHIGAN CITY              55     260/  4/  6   N/A
MICHIGAN CITY 6N           53 51  210/  6/  6   N/A           1
ST. JOSEPH                 54 53   40/  6/  8   N/A           1/ 2
$$

ILZ025>027-034>036-040-047-049-050-058-095>099-220900-
WEST-CENTRAL ILLINOIS

CITY           SKY/WX    TMP DP  RH WIND       PRES   REMARKS
QUINCY         CLEAR     53  45  74 SW10      30.16R
GALESBURG*     CLEAR     53  46  78 W9        30.10R
MACOMB*          N/A     55  47  76 W12       30.14R
JACKSONVILLE*  CLEAR     55  47  75 SW8       30.14S
PITTSFIELD*    CLEAR     57  46  65 W10       30.17R
$$

ILZ028>032-037-038-041>044-048-051>054-059>061-220900-
CENTRAL ILLINOIS

CITY           SKY/WX    TMP DP  RH WIND       PRES   REMARKS
PONTIAC        CLEAR     55  47  74 SW9       30.08S
BLOOMINGTON    CLEAR     53  46  77 SW12      30.11R
DECATUR        CLEAR     55  45  68 SW12      30.13S
PEORIA         CLEAR     55  46  71 W5        30.10R
LACON*         CLEAR     55  46  71 W8        30.07S
LINCOLN*       CLEAR     56  46  68 SW7       30.10S
SPRINGFIELD    CLEAR     56  45  66 SW8       30.13F
TAYLORVILLE    CLEAR     52  45  76 SW9       30.15S
$$

ILZ033-039-045-046-055>057-062-063-220900-
EAST-CENTRAL ILLINOIS

CITY           SKY/WX    TMP DP  RH WIND       PRES   REMARKS
CHAMPAIGN      CLEAR     50  44  80 SW12      30.12R
DANVILLE*      CLEAR     50  44  78 SW8       30.08S
RANTOUL*       CLEAR     54  45  72 SW7       30.10S
MATTOON        CLEAR     52  42  69 SW9       30.13S
PARIS*         CLEAR     51  43  74 SW12      30.14R
$$

ILZ079-100>102-220900-
SOUTHWEST ILLINOIS

CITY           SKY/WX    TMP DP  RH WIND       PRES   REMARKS
ALTON          CLEAR     50  49  94 SW5       30.19R
BELLEVILLE     CLEAR     49  45  85 SW3       30.18S
CAHOKIA*       CLEAR     51  44  77 SW3       30.19S
SPARTA*        CLEAR     48  44  84 SW5       30.21S
$$

ILZ064>066-069>071-074>076-080>082-084>086-088>090-092>094-220900-
SOUTH-CENTRAL ILLINOIS

CITY           SKY/WX    TMP DP  RH WIND       PRES   REMARKS
CARBONDALE     CLEAR     44  41  89 CALM      30.21S
CAIRO*         CLEAR     47  47 100 CALM      30.23R
EFFINGHAM*     CLEAR     49  41  73 SW7       30.18S
MARION         CLEAR     48  45  87 S5        30.21S
MT. VERNON     CLEAR     39  36  87 CALM      30.20S
CENTRALIA*     CLEAR     47  42  84 SW5       30.19S
SALEM*         CLEAR     49  44  81 SW5       30.19S
METROPOLIS*    CLEAR     44  44 100 CALM      30.21S FOG
$$

ILZ067-068-072-073-078-083-087-091-220900-
SOUTHEAST ILLINOIS

CITY           SKY/WX    TMP DP  RH WIND       PRES   REMARKS
LAWRENCEVILLE  CLEAR     47  42  83 SW7       30.18R
FLORA*         CLEAR     49  43  78 SW8       30.19S
FAIRFIELD*     CLEAR     45  44  96 CALM      30.19R
HARRISBURG*    CLEAR     45  45 100 CALM      30.22S
ROBINSON*      CLEAR     51  43  73 W13       30.17S
CARMI*         CLEAR     47  41  79 SW7       30.20R
$$

ABBREVIATIONS USED IN REMARKS
   TC - TEMPERATURE IN CELSIUS
  WCI - WIND CHILL INDEX
   HX - HEAT INDEX
  VSB - VISIBILITY
$$




USA.gov is the U.S. government's official web portal to all federal, state and local government web resources and services.